Find Starlink 31485

NORAD ID: 59308 Int'l Des: 2024-056 Owner: SPXS Country: US Constellation: starlink operational
LEOCIRCULAR

リアルタイム位置

3D地球を読み込み中...

Starlink 31485について

説明を読み込み中...

次回通過

Passes for default location (London). Set your location on the main map for personalized predictions.

高度履歴

Loading altitude history...

軌道要素

1 59308U 24056N 26133.24164674 -.00022476 00000-0 -80753-3 0 9990
2 59308 43.0047 226.4171 0001715 280.0492 80.0166 15.27666575121024
Epoch: May 13, 2026 • Age: 8 hours

現在のステータス

高度 482.6 km
速度 7.63 km/s
衛星直下点 -2.28°S, 146.35°E
打ち上げ日 Mar 24, 2024
運用期間 2.1 years
タイプ internet

技術仕様

分類 Payload
質量 730.00 kg
乾燥質量 700.00 kg
総質量 730.00 kg
長さ 0.30 m
直径 4.10 m
スパン 29.00 m
形状 Box + pan
製造者 SPXS
バスタイプ Starlink V2M
フェーズステータス In Orbit
所有者/国 SPXS/US

Most Searched